Weather Roundup
Issued by NWS Chicago, IL

Home | Current Version | Previous Version | Graphics & Text | Print | Product List | Glossary On
Versions: 1 2 3 4 5 6 7 8 9 10 11 12 13 14 15 16 17 18 19 20 21 22 23 24 25 26 27 28 29 30 31 32 33 34 35 36 37 38 39 40 41 42 43 44 45 46 47 48 49 50
000
NZUS59 KLOT 271713
HRRLOT

CHICAGO AREA WEATHER ROUNDUP
NATIONAL WEATHER SERVICE CHICAGO/ROMEOVILLE IL
1200 PM CDT WED MAY 27 2015

NOTE: "FAIR" INDICATES FEW OR NO CLOUDS BELOW 12,000 FEET WITH NO
SIGNIFICANT WEATHER AND/OR OBSTRUCTIONS TO VISIBILITY.

* THESE STATIONS ARE NOT UNDER NWS QUALITY CONTROL. THEY ALSO MAY NOT
  REPORT WEATHER SUCH AS PRECIPITATION OR FOG.

ILZ005-006-012>014-019>023-271800-
NORTHEAST ILLINOIS

CITY           SKY/WX    TMP DP  RH WIND       PRES   REMARKS
OHARE          PTSUNNY   71  59  65 W15G23    29.97R
MIDWAY         PTSUNNY   73  58  59 W16G23    29.98R
AURORA         PTSUNNY   72  59  63 W21G29    30.00R
LANSING*       CLOUDY    73  56  56 W16G23    29.99R
JOLIET*        PTSUNNY   74  60  61 W12G20    30.00R
WAUKEGAN       PTSUNNY   69  62  78 VRB5      29.96R
DUPAGE AIRPORT CLOUDY    71  58  63 W15       29.98R
WHEELING       CLOUDY    69  59  70 W10       29.98R
KANKAKEE*      CLOUDY    74  60  61 W20G25    30.01S
MORRIS*        CLOUDY    70  60  69 W14       29.99R
LEWIS AIRPORT* PTSUNNY   73  59  61 W18G25    30.00R
NORTHERLY IS     N/A     72  56  57 SW7         N/A
$$

WIZ051-052-058>065-066-070>072-271800-
SOUTHEAST WISCONSIN

CITY           SKY/WX    TMP DP  RH WIND       PRES   REMARKS
MILWAUKEE      LGT RAIN  64  57  78 NW15      29.95R
KENOSHA*       PTSUNNY   70  60  70 W18G25    29.95R
RACINE*        MOSUNNY   70  59  68 W12G18    29.95R
BURLINGTON     LGT RAIN  62  57  84 W14G20    29.97R
WAUKESHA       CLOUDY    63  57  82 W18       29.97R
WEST BEND      CLOUDY    63  55  77 W13G18    29.95R
$$

INZ001>003-010>013-019-020-271800-
NORTHWEST INDIANA

CITY           SKY/WX    TMP DP  RH WIND       PRES   REMARKS
GARY*          PTSUNNY   73  57  56 W22G33    29.99R
MICHIGAN CITY* NOT AVBL
RENSSELAER*    NOT AVBL
VALPARAISO     PTSUNNY   76  59  55 W21       29.99R
$$

LMZ740>746-271800-
SOUTHERN LAKE MICHIGAN

STATION/POSITION TIME  SKY/WX   TEMP WIND        PRES    VSBY
                                AIR  DIR/SP/G
                 (UTC)          (F)  (DEG/KT/KT) (MB)    (MI)
HARRISON CRIB    1600            69  260/ 20/ 24   N/A
BURNHAM HARBOR   1700            72  260/  9/ 18   N/A
CALUMET HARBOR   1606            72  220/ 11/ 18   N/A
BURNS HARBOR     1607            69  240/ 20/ 26 1015.2R
MICHIGAN CITY    1600            61  210/ 11/ 12   N/A
$$

ABBREVIATIONS USED IN REMARKS
   TC - TEMPERATURE IN CELSIUS
  WCI - WIND CHILL INDEX
   HX - HEAT INDEX
  VSB - VISIBILITY
$$



USA.gov is the U.S. government's official web portal to all federal, state and local government web resources and services.